Back to catalog

SL-8 R/B

AlivePO
NORAD 13758·ROCKET BODY·🇷🇺 Russia

Launched Jan 12, 1983 from Plesetsk Cosmodrome

Loading…

Next Passes (next 24 hours)

TLE

FreshSource: Space-Track

Epoch: Sep 14, 2026, 12:53 UTC

1 13758U 83001B   26257.53728232  .00000010  00000-0 -50907-5 0  9998
2 13758  82.9095 299.3815 0026381 225.2054 134.6960 13.79193066196703

Track SL-8 R/B in real time with AllMySat

Download on the App Store